BEIDOU-3 G1

Last updated on Jan. 24, 2021, 6:18 a.m. UTC

1 43683U 18085A   21023.95346403 -.00000264  00000-0  00000-0 0  9991
2 43683   1.3096 242.0542 0003059  16.1372 348.6087  1.00272952  8317
UTC
Height (km)
Latitude
Longitude
Inclination
Orbital Period
UTC large
Height (km)
Speed (km/s)
/
Latitude / Longitude
Inclination (degrees)
Orbital Period (minutes)
Azimuth
Elevation
Range (km)
Doppler Factor
iOS Compass Heading
iOS Angle

Next 30 passes for location: Hong Kong

Rise time Rise Azimuth (degrees) Set time Set Azimuth (degrees) Duration Max altitude (degrees)

No matching passes for this satellites